| time (UTC) | temp F | wind direction | speed MPH | gust MPH | rain 1hr in | rain 24hr in | rain mn in | humidity % | barometer mb |
| 20260905163004 | 77 | 4 | 0.0 | 0.0 | 0.00 | 0.00 | 0.00 | 64 | 1010.1 |
| 20260905162503 | 77 | 349 | 0.0 | 2.0 | 0.00 | 0.00 | 0.00 | 64 | 1009.9 |
| 20260905162003 | 76 | 8 | 0.0 | 2.0 | 0.00 | 0.00 | 0.00 | 66 | 1009.9 |
| 20260905161502 | 76 | 350 | 1.0 | 5.0 | 0.00 | 0.00 | 0.00 | 65 | 1010.0 |
| 20260905161002 | 76 | 279 | 0.0 | 3.0 | 0.00 | 0.00 | 0.00 | 65 | 1009.9 |
| 20260905160502 | 75 | 49 | 2.0 | 3.0 | 0.00 | 0.00 | 0.00 | 67 | 1010.0 |
| 20260905160003 | 75 | 11 | 0.0 | 3.0 | 0.00 | 0.00 | 0.00 | 66 | 1010.0 |
| 20260905155502 | 75 | 311 | 0.0 | 2.0 | 0.00 | 0.00 | 0.00 | 67 | 1009.9 |
| 20260905154502 | 75 | 342 | 1.0 | 2.0 | 0.00 | 0.00 | 0.00 | 67 | 1010.1 |
| 20260905154002 | 75 | 27 | 0.0 | 3.0 | 0.00 | 0.00 | 0.00 | 65 | 1010.0 |
| 20260905153501 | 75 | 29 | 1.0 | 3.0 | 0.00 | 0.00 | 0.00 | 66 | 1010.0 |
| 20260905153002 | 74 | 5 | 2.0 | 5.0 | 0.00 | 0.00 | 0.00 | 67 | 1010.0 |
| 20260905152502 | 74 | 324 | 1.0 | 2.0 | 0.00 | 0.00 | 0.00 | 68 | 1010.0 |
| 20260905152002 | 74 | 354 | 0.0 | 3.0 | 0.00 | 0.00 | 0.00 | 68 | 1010.0 |
| 20260905151502 | 73 | 290 | 1.0 | 5.0 | 0.00 | 0.00 | 0.00 | 69 | 1010.0 |
| 20260905151002 | 73 | 330 | 0.0 | 3.0 | 0.00 | 0.00 | 0.00 | 69 | 1010.0 |
| 20260905150501 | 73 | 3 | 0.0 | 3.0 | 0.00 | 0.00 | 0.00 | 68 | 1010.0 |
| 20260905145502 | 73 | 53 | 2.0 | 3.0 | 0.00 | 0.00 | 0.00 | 68 | 1009.9 |
| 20260905145002 | 73 | 3 | 1.0 | 3.0 | 0.00 | 0.00 | 0.00 | 68 | 1010.0 |
| 20260905144502 | 73 | 340 | 1.0 | 3.0 | 0.00 | 0.00 | 0.00 | 69 | 1010.1 |
| 20260905144003 | 73 | 42 | 1.0 | 3.0 | 0.00 | 0.00 | 0.00 | 68 | 1010.1 |
| 20260905143503 | 73 | 35 | 1.0 | 2.0 | 0.00 | 0.00 | 0.00 | 69 | 1010.1 |
| 20260905143003 | 72 | 318 | 1.0 | 3.0 | 0.00 | 0.00 | 0.00 | 69 | 1010.0 |
| 20260905142504 | 72 | 321 | 1.0 | 3.0 | 0.00 | 0.00 | 0.00 | 70 | 1010.0 |
| 20260905141002 | 71 | 352 | 1.0 | 3.0 | 0.00 | 0.00 | 0.00 | 70 | 1010.0 |
| 20260905140502 | 71 | 300 | 0.0 | 3.0 | 0.00 | 0.00 | 0.00 | 69 | 1009.9 |
| 20260905140002 | 71 | 354 | 0.0 | 2.0 | 0.00 | 0.00 | 0.00 | 70 | 1010.0 |
| 20260905135502 | 71 | 356 | 1.0 | 7.0 | 0.00 | 0.00 | 0.00 | 70 | 1009.9 |
| 20260905135002 | 71 | 349 | 1.0 | 3.0 | 0.00 | 0.00 | 0.00 | 70 | 1009.9 |
| 20260905134502 | 70 | 2 | 1.0 | 3.0 | 0.00 | 0.00 | 0.00 | 70 | 1009.9 |
| 20260905134002 | 70 | 354 | 1.0 | 3.0 | 0.00 | 0.00 | 0.00 | 70 | 1010.0 |
| 20260905133002 | 70 | 44 | 0.0 | 2.0 | 0.00 | 0.00 | 0.00 | 70 | 1010.1 |
| 20260905132503 | 70 | 6 | 1.0 | 3.0 | 0.00 | 0.00 | 0.00 | 71 | 1010.2 |
| 20260905132002 | 70 | 311 | 0.0 | 3.0 | 0.00 | 0.00 | 0.00 | 71 | 1010.1 |
| 20260905131502 | 70 | 343 | 0.0 | 2.0 | 0.00 | 0.00 | 0.00 | 72 | 1010.2 |
| 20260905131003 | 70 | 3 | 0.0 | 2.0 | 0.00 | 0.00 | 0.00 | 72 | 1010.2 |
| 20260905130502 | 69 | 283 | 1.0 | 2.0 | 0.00 | 0.00 | 0.00 | 72 | 1010.3 |
| 20260905130002 | 69 | 12 | 1.0 | 2.0 | 0.00 | 0.00 | 0.00 | 72 | 1010.3 |
| 20260905125502 | 69 | 37 | 1.0 | 2.0 | 0.00 | 0.00 | 0.00 | 72 | 1010.3 |
| 20260905125003 | 69 | 349 | 1.0 | 2.0 | 0.00 | 0.00 | 0.00 | 72 | 1010.3 |
| 20260905124503 | 69 | 39 | 1.0 | 3.0 | 0.00 | 0.00 | 0.00 | 72 | 1010.3 |
| 20260905124002 | 69 | 333 | 1.0 | 3.0 | 0.00 | 0.00 | 0.00 | 72 | 1010.3 |
| 20260905123503 | 69 | 343 | 1.0 | 6.0 | 0.00 | 0.00 | 0.00 | 73 | 1010.3 |
| 20260905123002 | 69 | 31 | 2.0 | 3.0 | 0.00 | 0.00 | 0.00 | 73 | 1010.3 |
| 20260905122504 | 68 | 17 | 1.0 | 3.0 | 0.00 | 0.00 | 0.00 | 73 | 1010.4 |
| 20260905122002 | 68 | 2 | 0.0 | 0.0 | 0.00 | 0.00 | 0.00 | 73 | 1010.5 |
| 20260905121002 | 68 | 17 | 0.0 | 0.0 | 0.00 | 0.00 | 0.00 | 74 | 1010.4 |
| 20260905120503 | 68 | 47 | 1.0 | 2.0 | 0.00 | 0.00 | 0.00 | 74 | 1010.3 |
| 20260905120003 | 68 | 28 | 1.0 | 2.0 | 0.00 | 0.00 | 0.00 | 74 | 1010.3 |
| 20260905115504 | 68 | 8 | 1.0 | 3.0 | 0.00 | 0.00 | 0.00 | 74 | 1010.2 |
| 20260905115002 | 67 | 19 | 2.0 | 3.0 | 0.00 | 0.00 | 0.00 | 74 | 1010.1 |
| 20260905114502 | 67 | 61 | 1.0 | 2.0 | 0.00 | 0.00 | 0.00 | 74 | 1010.1 |
| 20260905114003 | 67 | 36 | 0.0 | 0.0 | 0.00 | 0.00 | 0.00 | 74 | 1010.0 |
| 20260905113504 | 67 | 38 | 0.0 | 0.0 | 0.00 | 0.00 | 0.00 | 74 | 1009.9 |
| 20260905113004 | 67 | 30 | 0.0 | 0.0 | 0.00 | 0.00 | 0.00 | 74 | 1009.9 |
| 20260905112502 | 67 | 359 | 0.0 | 0.0 | 0.00 | 0.00 | 0.00 | 74 | 1009.8 |
| 20260905112003 | 67 | 359 | 0.0 | 0.0 | 0.00 | 0.00 | 0.00 | 74 | 1009.8 |
| 20260905111504 | 67 | 359 | 0.0 | 0.0 | 0.00 | 0.00 | 0.00 | 73 | 1009.8 |
| 20260905111003 | 67 | 359 | 0.0 | 0.0 | 0.00 | 0.00 | 0.00 | 73 | 1009.7 |
| 20260905105501 | 67 | 355 | 0.0 | 0.0 | 0.00 | 0.00 | 0.00 | 73 | 1009.7 |
| 20260905105002 | 67 | 355 | 0.0 | 0.0 | 0.00 | 0.00 | 0.00 | 73 | 1009.6 |
| 20260905104502 | 67 | 355 | 0.0 | 0.0 | 0.00 | 0.00 | 0.00 | 73 | 1009.5 |
| 20260905103502 | 68 | 355 | 0.0 | 0.0 | 0.00 | 0.00 | 0.00 | 73 | 1009.4 |
| 20260905103002 | 68 | 355 | 0.0 | 0.0 | 0.00 | 0.00 | 0.00 | 73 | 1009.4 |
| 20260905102503 | 68 | 355 | 0.0 | 0.0 | 0.00 | 0.00 | 0.00 | 73 | 1009.4 |
| 20260905102002 | 68 | 355 | 0.0 | 0.0 | 0.00 | 0.00 | 0.00 | 73 | 1009.4 |
| 20260905101502 | 68 | 355 | 0.0 | 0.0 | 0.00 | 0.00 | 0.00 | 72 | 1009.4 |
| 20260905101003 | 68 | 355 | 0.0 | 0.0 | 0.00 | 0.00 | 0.00 | 72 | 1009.3 |
| 20260905100502 | 68 | 355 | 0.0 | 0.0 | 0.00 | 0.00 | 0.00 | 72 | 1009.3 |
| 20260905100003 | 68 | 355 | 0.0 | 0.0 | 0.00 | 0.00 | 0.00 | 72 | 1009.3 |
| 20260905095502 | 69 | 28 | 0.0 | 0.0 | 0.00 | 0.00 | 0.00 | 72 | 1009.3 |
| 20260905095002 | 69 | 28 | 1.0 | 3.0 | 0.00 | 0.00 | 0.00 | 72 | 1009.2 |
| 20260905094502 | 69 | 19 | 0.0 | 0.0 | 0.00 | 0.00 | 0.00 | 72 | 1009.1 |
| 20260905094002 | 69 | 30 | 0.0 | 0.0 | 0.00 | 0.00 | 0.00 | 72 | 1009.1 |
| 20260905093503 | 69 | 11 | 0.0 | 2.0 | 0.00 | 0.00 | 0.00 | 71 | 1009.1 |
| 20260905093002 | 69 | 24 | 0.0 | 3.0 | 0.00 | 0.00 | 0.00 | 71 | 1009.1 |
| 20260905092003 | 69 | 343 | 0.0 | 0.0 | 0.00 | 0.00 | 0.00 | 71 | 1009.1 |
| 20260905091503 | 69 | 343 | 0.0 | 0.0 | 0.00 | 0.00 | 0.00 | 71 | 1009.1 |
| 20260905090503 | 70 | 357 | 1.0 | 3.0 | 0.00 | 0.00 | 0.00 | 71 | 1009.0 |
| 20260905090002 | 70 | 3 | 1.0 | 3.0 | 0.00 | 0.00 | 0.00 | 71 | 1008.9 |
| 20260905085503 | 70 | 357 | 1.0 | 3.0 | 0.00 | 0.00 | 0.00 | 70 | 1009.0 |
| 20260905085003 | 70 | 356 | 1.0 | 3.0 | 0.00 | 0.00 | 0.00 | 71 | 1009.1 |
| 20260905084503 | 70 | 357 | 1.0 | 2.0 | 0.00 | 0.00 | 0.00 | 71 | 1009.1 |
| 20260905084003 | 70 | 28 | 1.0 | 2.0 | 0.00 | 0.00 | 0.00 | 71 | 1009.0 |
| 20260905083503 | 70 | 19 | 1.0 | 3.0 | 0.00 | 0.00 | 0.00 | 70 | 1009.0 |
| 20260905083002 | 70 | 12 | 1.0 | 3.0 | 0.00 | 0.00 | 0.00 | 70 | 1008.9 |
| 20260905082002 | 70 | 41 | 2.0 | 3.0 | 0.00 | 0.00 | 0.00 | 70 | 1009.0 |
| 20260905081503 | 70 | 4 | 1.0 | 3.0 | 0.00 | 0.00 | 0.00 | 70 | 1008.9 |
| 20260905081003 | 70 | 9 | 0.0 | 0.0 | 0.00 | 0.00 | 0.00 | 71 | 1008.9 |
| 20260905080503 | 70 | 9 | 0.0 | 2.0 | 0.00 | 0.00 | 0.00 | 71 | 1009.0 |
| 20260905080004 | 70 | 31 | 1.0 | 2.0 | 0.00 | 0.00 | 0.00 | 71 | 1009.0 |
| 20260905075502 | 70 | 321 | 0.0 | 2.0 | 0.00 | 0.00 | 0.00 | 71 | 1009.0 |
| 20260905075002 | 70 | 346 | 1.0 | 3.0 | 0.00 | 0.00 | 0.00 | 70 | 1009.0 |
| 20260905074502 | 70 | 355 | 0.0 | 3.0 | 0.00 | 0.00 | 0.00 | 70 | 1009.0 |
| 20260905073502 | 70 | 3 | 0.0 | 2.0 | 0.00 | 0.00 | 0.00 | 70 | 1008.9 |
| 20260905073002 | 70 | 31 | 1.0 | 3.0 | 0.00 | 0.00 | 0.00 | 70 | 1009.0 |
| 20260905071502 | 71 | 25 | 1.0 | 3.0 | 0.00 | 0.00 | 0.00 | 70 | 1009.1 |
| 20260905071002 | 71 | 347 | 2.0 | 3.0 | 0.00 | 0.00 | 0.00 | 70 | 1009.1 |
| 20260905070503 | 71 | 359 | 1.0 | 3.0 | 0.00 | 0.00 | 0.00 | 70 | 1009.1 |
| 20260905070002 | 71 | 359 | 1.0 | 3.0 | 0.00 | 0.00 | 0.00 | 70 | 1009.2 |
| 20260905065003 | 71 | 2 | 0.0 | 3.0 | 0.00 | 0.00 | 0.00 | 71 | 1009.4 |
| 20260905064002 | 71 | 351 | 1.0 | 3.0 | 0.00 | 0.00 | 0.00 | 70 | 1009.4 |
| 20260905063504 | 71 | 29 | 1.0 | 3.0 | 0.00 | 0.00 | 0.00 | 70 | 1009.4 |
| 20260905062502 | 71 | 357 | 1.0 | 6.0 | 0.00 | 0.20 | 0.00 | 71 | 1009.4 |
| 20260905061002 | 70 | 2 | 2.0 | 3.0 | 0.00 | 0.21 | 0.00 | 71 | 1009.5 |
| 20260905060503 | 70 | 6 | 2.0 | 3.0 | 0.00 | 0.22 | 0.00 | 72 | 1009.6 |
| 20260905055503 | 70 | 355 | 0.0 | 0.0 | 0.00 | 0.34 | 0.00 | 74 | 1009.7 |
| 20260905055002 | 70 | 2 | 1.0 | 2.0 | 0.00 | 0.34 | 0.00 | 74 | 1009.6 |
| 20260905054502 | 71 | 355 | 0.0 | 0.0 | 0.00 | 0.34 | 0.00 | 74 | 1009.7 |
| 20260905054002 | 71 | 23 | 0.0 | 0.0 | 0.00 | 0.34 | 0.00 | 75 | 1009.7 |
| 20260905053502 | 71 | 23 | 0.0 | 0.0 | 0.00 | 0.34 | 0.00 | 75 | 1009.7 |
| 20260905053003 | 71 | 23 | 0.0 | 0.0 | 0.00 | 0.34 | 0.00 | 75 | 1009.8 |
| 20260905052502 | 71 | 23 | 0.0 | 0.0 | 0.00 | 0.34 | 0.00 | 75 | 1009.8 |
| 20260905052003 | 71 | 23 | 0.0 | 0.0 | 0.00 | 0.34 | 0.00 | 75 | 1009.9 |
| 20260905051503 | 71 | 23 | 0.0 | 0.0 | 0.00 | 0.34 | 0.00 | 75 | 1009.9 |
| 20260905051002 | 71 | 23 | 0.0 | 0.0 | 0.00 | 0.34 | 0.00 | 75 | 1009.9 |
| 20260905050502 | 71 | 23 | 0.0 | 0.0 | 0.00 | 0.34 | 0.00 | 75 | 1009.9 |
| 20260905050004 | 71 | 23 | 0.0 | 0.0 | 0.00 | 0.34 | 0.00 | 75 | 1010.0 |
| 20260905045502 | 71 | 23 | 0.0 | 0.0 | 0.00 | 0.34 | 0.00 | 75 | 1010.0 |
| 20260905045002 | 71 | 23 | 0.0 | 0.0 | 0.00 | 0.34 | 0.00 | 75 | 1010.1 |
| 20260905044503 | 71 | 23 | 0.0 | 0.0 | 0.00 | 0.34 | 0.00 | 75 | 1010.0 |
| 20260905043502 | 71 | 23 | 0.0 | 0.0 | 0.00 | 0.34 | 0.00 | 75 | 1010.2 |
| 20260905043002 | 71 | 23 | 0.0 | 0.0 | 0.00 | 0.34 | 0.00 | 75 | 1010.1 |
| 20260905042502 | 71 | 23 | 0.0 | 0.0 | 0.00 | 0.34 | 0.00 | 75 | 1010.1 |
| 20260905042003 | 71 | 23 | 0.0 | 0.0 | 0.00 | 0.34 | 0.00 | 75 | 1010.1 |
| 20260905041502 | 71 | 23 | 0.0 | 0.0 | 0.00 | 0.34 | 0.00 | 75 | 1010.2 |
| 20260905041003 | 71 | 23 | 0.0 | 0.0 | 0.00 | 0.34 | 0.00 | 74 | 1010.2 |
| 20260905040502 | 71 | 23 | 0.0 | 0.0 | 0.00 | 0.34 | 0.00 | 74 | 1010.3 |
| 20260905040003 | 71 | 23 | 0.0 | 0.0 | 0.00 | 0.34 | 0.00 | 74 | 1010.3 |
| 20260905034003 | 71 | 23 | 0.0 | 0.0 | 0.00 | 0.34 | 0.34 | 74 | 1010.2 |
| 20260905033502 | 71 | 23 | 0.0 | 0.0 | 0.00 | 0.34 | 0.34 | 74 | 1010.2 |
| 20260905033003 | 71 | 23 | 0.0 | 0.0 | 0.00 | 0.34 | 0.34 | 74 | 1010.2 |
| 20260905032503 | 71 | 23 | 0.0 | 0.0 | 0.00 | 0.34 | 0.34 | 74 | 1010.1 |
| 20260905032002 | 71 | 23 | 0.0 | 0.0 | 0.00 | 0.34 | 0.34 | 74 | 1010.1 |
| 20260905031502 | 71 | 101 | 0.0 | 0.0 | 0.00 | 0.34 | 0.34 | 74 | 1010.0 |
| 20260905031002 | 71 | 101 | 0.0 | 0.0 | 0.00 | 0.34 | 0.34 | 73 | 1010.0 |
| 20260905030502 | 71 | 101 | 0.0 | 0.0 | 0.00 | 0.34 | 0.34 | 73 | 1010.0 |
| 20260905025002 | 71 | 101 | 0.0 | 0.0 | 0.00 | 0.34 | 0.34 | 73 | 1009.9 |
| 20260905023503 | 71 | 101 | 0.0 | 0.0 | 0.00 | 0.34 | 0.34 | 74 | 1010.0 |
| 20260905023002 | 71 | 101 | 0.0 | 0.0 | 0.00 | 0.34 | 0.34 | 73 | 1009.9 |
| 20260905022502 | 71 | 101 | 0.0 | 0.0 | 0.00 | 0.34 | 0.34 | 73 | 1009.9 |
| 20260905022003 | 71 | 101 | 0.0 | 0.0 | 0.00 | 0.34 | 0.34 | 73 | 1010.0 |
| 20260905021503 | 71 | 101 | 0.0 | 0.0 | 0.00 | 0.34 | 0.34 | 72 | 1010.0 |
| 20260905021002 | 71 | 101 | 0.0 | 0.0 | 0.00 | 0.34 | 0.34 | 72 | 1010.0 |
| 20260905020503 | 71 | 101 | 0.0 | 0.0 | 0.00 | 0.34 | 0.34 | 72 | 1010.1 |
| 20260905020002 | 71 | 101 | 0.0 | 0.0 | 0.00 | 0.34 | 0.34 | 73 | 1010.1 |
| 20260905015003 | 72 | 101 | 0.0 | 0.0 | 0.00 | 0.34 | 0.34 | 73 | 1010.1 |
| 20260905014503 | 72 | 101 | 0.0 | 0.0 | 0.00 | 0.34 | 0.34 | 72 | 1010.0 |
| 20260905014003 | 72 | 101 | 0.0 | 0.0 | 0.00 | 0.34 | 0.34 | 72 | 1010.0 |
| 20260905013502 | 72 | 101 | 0.0 | 0.0 | 0.00 | 0.34 | 0.34 | 72 | 1010.1 |
| 20260905013002 | 72 | 101 | 0.0 | 0.0 | 0.00 | 0.34 | 0.34 | 73 | 1010.1 |
| 20260905012502 | 72 | 101 | 0.0 | 0.0 | 0.00 | 0.34 | 0.34 | 72 | 1010.1 |
| 20260905012002 | 73 | 101 | 0.0 | 0.0 | 0.00 | 0.34 | 0.34 | 73 | 1010.1 |
| 20260905011503 | 72 | 101 | 0.0 | 0.0 | 0.00 | 0.34 | 0.34 | 72 | 1010.2 |
| 20260905011003 | 72 | 101 | 0.0 | 0.0 | 0.00 | 0.34 | 0.34 | 71 | 1010.1 |
| 20260905010502 | 73 | 101 | 0.0 | 0.0 | 0.00 | 0.34 | 0.34 | 72 | 1010.2 |
| 20260905005503 | 73 | 101 | 0.0 | 1.0 | 0.00 | 0.34 | 0.34 | 71 | 1010.2 |
| 20260905004002 | 73 | 101 | 0.0 | 1.0 | 0.00 | 0.34 | 0.34 | 72 | 1010.0 |
| 20260905003503 | 73 | 101 | 0.0 | 0.0 | 0.00 | 0.34 | 0.34 | 71 | 1010.1 |
| 20260905003003 | 73 | 101 | 0.0 | 0.0 | 0.00 | 0.34 | 0.34 | 71 | 1010.0 |
| 20260905002502 | 73 | 101 | 0.0 | 0.0 | 0.00 | 0.34 | 0.34 | 71 | 1010.1 |
| 20260905001502 | 74 | 101 | 0.0 | 0.0 | 0.00 | 0.34 | 0.34 | 71 | 1010.0 |
| 20260905000502 | 74 | 101 | 0.0 | 0.0 | 0.00 | 0.34 | 0.34 | 71 | 1009.9 |
| 20260905000004 | 74 | 101 | 0.0 | 0.0 | 0.00 | 0.34 | 0.34 | 71 | 1010.0 |
| 20260904235503 | 74 | 101 | 0.0 | 0.0 | 0.00 | 0.34 | 0.34 | 71 | 1010.0 |
| 20260904235004 | 74 | 101 | 0.0 | 0.0 | 0.00 | 0.34 | 0.34 | 71 | 1009.9 |
| 20260904234503 | 75 | 101 | 0.0 | 0.0 | 0.00 | 0.34 | 0.34 | 70 | 1010.0 |
| 20260904234002 | 75 | 101 | 0.0 | 0.0 | 0.00 | 0.34 | 0.34 | 70 | 1009.9 |
| 20260904233503 | 75 | 101 | 0.0 | 0.0 | 0.00 | 0.34 | 0.34 | 70 | 1009.8 |
| 20260904233003 | 75 | 101 | 0.0 | 0.0 | 0.00 | 0.34 | 0.34 | 69 | 1009.8 |
| 20260904232504 | 76 | 101 | 0.0 | 0.0 | 0.00 | 0.34 | 0.34 | 69 | 1009.8 |
| 20260904232003 | 76 | 101 | 0.0 | 0.0 | 0.00 | 0.34 | 0.34 | 69 | 1009.6 |
| 20260904231504 | 76 | 101 | 0.0 | 0.0 | 0.00 | 0.34 | 0.34 | 69 | 1009.5 |
| 20260904231003 | 76 | 101 | 0.0 | 0.0 | 0.00 | 0.34 | 0.34 | 69 | 1009.6 |
| 20260904230002 | 77 | 100 | 0.0 | 0.0 | 0.00 | 0.34 | 0.34 | 68 | 1009.7 |
| 20260904225503 | 77 | 100 | 0.0 | 0.0 | 0.00 | 0.34 | 0.34 | 68 | 1009.6 |
| 20260904225002 | 77 | 100 | 0.0 | 0.0 | 0.00 | 0.34 | 0.34 | 68 | 1009.6 |
| 20260904224502 | 77 | 100 | 0.0 | 0.0 | 0.00 | 0.34 | 0.34 | 68 | 1009.7 |
| 20260904224003 | 78 | 100 | 0.0 | 0.0 | 0.00 | 0.34 | 0.34 | 68 | 1009.7 |
| 20260904223502 | 78 | 100 | 0.0 | 0.0 | 0.00 | 0.34 | 0.34 | 67 | 1009.7 |
| 20260904223002 | 78 | 100 | 0.0 | 0.0 | 0.00 | 0.34 | 0.34 | 67 | 1009.7 |
| 20260904222502 | 78 | 100 | 0.0 | 0.0 | 0.00 | 0.34 | 0.34 | 66 | 1009.7 |
| 20260904222003 | 78 | 100 | 0.0 | 0.0 | 0.00 | 0.34 | 0.34 | 66 | 1009.7 |
| 20260904221502 | 78 | 101 | 0.0 | 0.0 | 0.00 | 0.34 | 0.34 | 67 | 1009.7 |
| 20260904221003 | 79 | 99 | 0.0 | 0.0 | 0.00 | 0.34 | 0.34 | 66 | 1009.7 |
| 20260904220502 | 79 | 36 | 0.0 | 0.0 | 0.00 | 0.34 | 0.34 | 66 | 1009.7 |
| 20260904220003 | 79 | 31 | 0.0 | 0.0 | 0.00 | 0.34 | 0.34 | 66 | 1009.6 |
| 20260904215504 | 79 | 20 | 0.0 | 0.0 | 0.00 | 0.34 | 0.34 | 64 | 1009.6 |
| 20260904214503 | 80 | 62 | 0.0 | 0.0 | 0.00 | 0.34 | 0.34 | 64 | 1009.6 |
| 20260904214004 | 80 | 21 | 0.0 | 0.0 | 0.00 | 0.34 | 0.34 | 64 | 1009.6 |
| 20260904213502 | 80 | 26 | 0.0 | 0.0 | 0.00 | 0.34 | 0.34 | 63 | 1009.6 |
| 20260904213003 | 80 | 71 | 1.0 | 3.0 | 0.00 | 0.34 | 0.34 | 63 | 1009.5 |
| 20260904212503 | 80 | 9 | 0.0 | 1.0 | 0.00 | 0.34 | 0.34 | 63 | 1009.5 |
| 20260904211502 | 80 | 12 | 1.0 | 3.0 | 0.00 | 0.34 | 0.34 | 63 | 1009.6 |
| 20260904211002 | 80 | 80 | 0.0 | 1.0 | 0.00 | 0.34 | 0.34 | 65 | 1009.6 |
| 20260904210503 | 80 | 61 | 1.0 | 3.0 | 0.00 | 0.34 | 0.34 | 64 | 1009.7 |
| 20260904205502 | 80 | 336 | 0.0 | 2.0 | 0.00 | 0.34 | 0.34 | 63 | 1009.8 |
| 20260904204502 | 81 | 268 | 1.0 | 5.0 | 0.00 | 0.34 | 0.34 | 62 | 1009.8 |
| 20260904204002 | 81 | 276 | 1.0 | 2.0 | 0.00 | 0.34 | 0.34 | 64 | 1009.8 |
| 20260904203503 | 81 | 2 | 1.0 | 3.0 | 0.00 | 0.34 | 0.34 | 62 | 1009.8 |
| 20260904203004 | 81 | 320 | 0.0 | 2.0 | 0.00 | 0.34 | 0.34 | 61 | 1009.9 |
| 20260904202503 | 81 | 346 | 1.0 | 2.0 | 0.00 | 0.34 | 0.34 | 60 | 1009.9 |
| 20260904202003 | 81 | 20 | 1.0 | 3.0 | 0.00 | 0.34 | 0.34 | 58 | 1009.9 |
| 20260904201003 | 81 | 322 | 1.0 | 3.0 | 0.00 | 0.34 | 0.34 | 60 | 1009.9 |
| 20260904200003 | 82 | 334 | 1.0 | 2.0 | 0.00 | 0.34 | 0.34 | 60 | 1009.9 |
| 20260904195502 | 82 | 343 | 1.0 | 5.0 | 0.00 | 0.34 | 0.34 | 58 | 1009.9 |
| 20260904195002 | 81 | 59 | 1.0 | 3.0 | 0.00 | 0.34 | 0.34 | 60 | 1010.0 |
| 20260904194503 | 81 | 71 | 0.0 | 2.0 | 0.00 | 0.34 | 0.34 | 59 | 1010.0 |
| 20260904194003 | 81 | 5 | 2.0 | 3.0 | 0.00 | 0.34 | 0.34 | 60 | 1010.1 |
| 20260904193502 | 81 | 19 | 1.0 | 3.0 | 0.00 | 0.34 | 0.34 | 61 | 1010.1 |
| 20260904193002 | 82 | 304 | 0.0 | 2.0 | 0.00 | 0.34 | 0.34 | 61 | 1010.3 |
| 20260904192502 | 82 | 308 | 1.0 | 2.0 | 0.00 | 0.34 | 0.34 | 62 | 1010.4 |
| 20260904192002 | 82 | 358 | 0.0 | 0.0 | 0.00 | 0.34 | 0.34 | 62 | 1010.4 |
| 20260904191503 | 82 | 41 | 1.0 | 2.0 | 0.00 | 0.34 | 0.34 | 62 | 1010.5 |
| 20260904191003 | 82 | 355 | 1.0 | 3.0 | 0.00 | 0.34 | 0.34 | 63 | 1010.5 |
| 20260904190502 | 82 | 27 | 1.0 | 3.0 | 0.00 | 0.34 | 0.34 | 60 | 1010.5 |
| 20260904190002 | 82 | 300 | 1.0 | 3.0 | 0.00 | 0.34 | 0.34 | 60 | 1010.4 |
| 20260904185502 | 82 | 6 | 1.0 | 2.0 | 0.00 | 0.34 | 0.34 | 58 | 1010.3 |
| 20260904185002 | 82 | 354 | 2.0 | 3.0 | 0.00 | 0.34 | 0.34 | 63 | 1010.3 |
| 20260904184502 | 82 | 356 | 1.0 | 3.0 | 0.00 | 0.34 | 0.34 | 64 | 1010.4 |
| 20260904184003 | 82 | 329 | 1.0 | 3.0 | 0.00 | 0.34 | 0.34 | 64 | 1010.4 |
| 20260904183003 | 82 | 334 | 2.0 | 3.0 | 0.00 | 0.34 | 0.34 | 63 | 1010.5 |
| 20260904182503 | 82 | 10 | 1.0 | 3.0 | 0.00 | 0.34 | 0.34 | 65 | 1010.4 |
| 20260904182003 | 82 | 6 | 1.0 | 5.0 | 0.00 | 0.34 | 0.34 | 65 | 1010.3 |
| 20260904181003 | 82 | 6 | 0.0 | 3.0 | 0.00 | 0.34 | 0.34 | 64 | 1010.3 |
| 20260904180504 | 82 | 32 | 1.0 | 3.0 | 0.00 | 0.34 | 0.34 | 64 | 1010.4 |
| 20260904180003 | 82 | 344 | 1.0 | 5.0 | 0.00 | 0.34 | 0.34 | 63 | 1010.4 |
| 20260904175503 | 82 | 35 | 3.0 | 6.0 | 0.00 | 0.34 | 0.34 | 63 | 1010.5 |
| 20260904175003 | 82 | 0 | 2.0 | 5.0 | 0.00 | 0.34 | 0.34 | 66 | 1010.5 |
| 20260904174503 | 82 | 25 | 2.0 | 5.0 | 0.00 | 0.34 | 0.34 | 66 | 1010.3 |
| 20260904174003 | 82 | 27 | 2.0 | 3.0 | 0.00 | 0.34 | 0.34 | 67 | 1010.3 |
| 20260904173503 | 82 | 8 | 2.0 | 5.0 | 0.00 | 0.34 | 0.34 | 65 | 1010.3 |
| 20260904173003 | 82 | 1 | 1.0 | 3.0 | 0.00 | 0.34 | 0.34 | 68 | 1010.4 |
| 20260904172002 | 82 | 2 | 2.0 | 5.0 | 0.00 | 0.34 | 0.34 | 69 | 1010.3 |
| 20260904171504 | 81 | 7 | 1.0 | 3.0 | 0.00 | 0.34 | 0.34 | 69 | 1010.4 |
| 20260904170503 | 81 | 344 | 2.0 | 6.0 | 0.00 | 0.34 | 0.34 | 68 | 1010.5 |
| 20260904170004 | 81 | 340 | 1.0 | 6.0 | 0.00 | 0.34 | 0.34 | 68 | 1010.5 |
| 20260904165502 | 81 | 17 | 1.0 | 6.0 | 0.00 | 0.34 | 0.34 | 70 | 1010.5 |
| 20260904165003 | 81 | 346 | 1.0 | 5.0 | 0.00 | 0.34 | 0.34 | 73 | 1010.5 |
| 20260904164502 | 81 | 4 | 1.0 | 3.0 | 0.00 | 0.34 | 0.34 | 73 | 1010.3 |
| 20260904164002 | 81 | 338 | 1.0 | 3.0 | 0.00 | 0.34 | 0.34 | 74 | 1010.4 |
| 20260904163502 | 81 | 38 | 2.0 | 5.0 | 0.00 | 0.34 | 0.34 | 75 | 1010.4 |